HULIANWANG DIGUI 12B

Last updated on Sun Oct 19 2025 00:02:08 GMT+0000 (Coordinated Universal Time)

1 65996U 25231B 25291.38464698 -.00000110 00000+0 25924-4 0 9993 2 65996 50.0008 348.3687 0008897 267.9022 92.0864 14.05584503 339
UTC large
Height (km)
Speed (km/s)
/
Latitude / Longitude
Inclination (degrees)
Orbital Period (minutes)
Azimuth
Elevation
Range (km)
Doppler Factor

Next 0 passes for location: London (51.5072 / 0.1276)

Sorry there are no passes over London.